Location: Harbor View
(36.2448°N, 86.5797°W)
Time: 07:35:48
(UTC+00:00)

COSMO-SKYMED 1 - Pass Details

Date: 09 March 2021
Orbit: 621 x 623 km, 97.9° (Epoch: 13 April)

Event Time Altitude Azimuth Distance (km) Brightness Sun altitude
Rises 00:08:46 0° 6° (N) 2,909 5.9 -5.0°
Reaches altitude 10° 00:11:00 10° 1° (N) 1,998 5.2 -5.5°
Maximum altitude 00:15:13 52° 286° (WNW) 780 3.6 -6.3°
Drops below altitude 10° 00:19:24 10° 210° (SSW) 1,983 5.6 -7.2°
Sets 00:21:37 0° 205° (SSW) 2,885 6.4 -7.6°
